Retour au catalogue

STARLINK-11303

ActifCommunicationsVLEO
NORAD 62096·PAYLOAD·🇺🇸 United States

Lancé Nov 25, 2024 depuis Cape Canaveral Space Force Station

Loading…

Prochains Passages (prochaines 24 heures)

TLE

FraisSource: CelesTrak SupGP

Époque: Sep 14, 2026, 23:02 UTC

1 62096C 24220J   26257.96020833 -.00088766  00000+0 -68930-3 0  2578
2 62096  43.0006 341.9891 0001650 279.5498  58.1454 15.70887263    14

Suivez STARLINK-11303 en temps réel avec AllMySat

Download on the App Store